{"data":{"norad_id":63225,"epoch":"2026-09-22T16:23:50.211456Z","epoch_age_seconds":122473,"freshness":"FRESH","line1":"1 63225U 25052R   26265.68322004  .00002940  00000+0  12755-3 0  9995","line2":"2 63225  97.3865 157.0593 0006047 137.1033 223.0676 15.23113838 84680","mean_motion":15.23113838,"eccentricity":0.0006047,"inclination_deg":97.3865,"raan_deg":157.0593,"arg_perigee_deg":137.1033,"mean_anomaly_deg":223.0676,"bstar":0.00012755,"rev_number":8468,"period_min":94.543163096126,"perigee_km":492.29799359537,"apogee_km":500.61212523202,"semimajor_km":6874.5920594137,"source":"CELESTRAK","updated_at":"2026-09-23T09:00:21.901905Z"}}